Location: A O Calhoun Middle School
(33.2198°N, 97.1397°W)
Time: 16:18:28
(UTC+00:00)

Cosmos 1538 Rocket - Pass Details

Date: 12 July 2022
Orbit: 752 x 791 km, 74.0° (Epoch: 13 August)

Event Time Altitude Azimuth Distance (km) Brightness Sun altitude
Exits shadow 08:06:08 11° 107° (ESE) 2,240 6.5 -30.6°
Maximum altitude 08:07:11 11° 95° (E) 2,196 6.6 -30.5°
Drops below altitude 10° 08:08:45 10° 77° (ENE) 2,288 6.9 -30.4°
Sets 08:12:55 0° 44° (NE) 3,212 8.3 -30.0°
